Overview Statistics Trail Chart Weather Telemetry Raw packets
 

This is the latest recevied weather packets stored in our database for station/object K8RRT. If no packets are shown the sender has not sent any weather packets the latest 10 day(s).

<< 49 50 51 52 53 54 55 >>
Time Temp. Humidity Pressure Rain* Wind** Luminosity Snow
1788282497 32.22° C 67% 1015.6 hPa 0 mm - 185 W/m² -
1788282197 32.22° C 68% 1015.8 hPa 0 mm - 686 W/m² -
1788281895 32.22° C 68% 1015.6 hPa 0 mm - 692 W/m² -
1788281590 31.67° C 70% 1015.7 hPa 0 mm - 729 W/m² -
1788281287 32.22° C 70% 1015.7 hPa 0 mm - 723 W/m² -
1788280982 32.22° C 72% 1015.4 hPa 0 mm - 727 W/m² -
1788280676 32.22° C 69% 1015.7 hPa 0 mm - 674 W/m² -
1788280370 31.67° C 70% 1015.6 hPa 0 mm - 709 W/m² -
1788280065 31.67° C 71% 1015.7 hPa 0 mm - 684 W/m² -
1788279765 31.67° C 71% 1015.6 hPa 0 mm - 672 W/m² -
1788279464 31.67° C 73% 1015.7 hPa 0 mm - 710 W/m² -
1788279159 31.67° C 76% 1015.5 hPa 0 mm - 662 W/m² -
1788278855 31.11° C 74% 1015.5 hPa 0 mm - 627 W/m² -
1788278550 31.11° C 72% 1015.6 hPa 0 mm - 706 W/m² -
1788278249 30.56° C 73% 1015.6 hPa 0 mm - 741 W/m² -
1788277944 31.11° C 74% 1015.7 hPa 0 mm - 707 W/m² -
1788277639 30.56° C 75% 1015.8 hPa 0 mm - 742 W/m² -
1788277335 30.56° C 75% 1015.2 hPa 0 mm - 734 W/m² -
1788277030 30.56° C 74% 1015.8 hPa 0 mm - 776 W/m² -
1788276724 30.56° C 74% 1015.7 hPa 0 mm - 756 W/m² -
1788276418 30.56° C 75% 1015.9 hPa 0 mm - 699 W/m² -
1788276117 30° C 76% 1015.8 hPa 0 mm - 751 W/m² -
1788275813 30° C 75% 1015.8 hPa 0 mm - 738 W/m² -
1788275512 30° C 77% 1015.8 hPa 0 mm - 649 W/m² -
1788275206 30° C 76% 1015.9 hPa 0 mm - 642 W/m² -

* Rain latest hour (hover to see other rain measurements)
** Current wind speed in m/s (hover to see current wind gust speed)